SCP
1 1 0 0 0 0 0 0 0 0 0 1 1 1 1 2 2 2 2 2 2 2 2 3 3 3 4 4 4 4 4 4 4 5 4 5 5 5 5 5 4 3 3 2
1 0 0 0 0 0 0 0 0 0 1 1 1 1 2 2 2 2 2 2 2 3 3 3 3 4 4 4 4 4 4 4 4 4 4 5 6 6 6 5 4 4 3 3
0 0 0 0 0 0 0 1 1 1 1 1 1 1 2 2 2 2 2 2 3 3 3 3 3 3 3 3 3 4 3 3 3 4 5 6 6 6 6 5 4 3 3 2
1 0 0 0 1 0 1 1 1 1 1 1 1 1 1 1 2 2 2 2 2 2 2 2 2 3 3 3 3 3 3 3 3 4 5 5 6 6 5 5 4 3 3 2
1 1 0 1 1 1 1 1 1 1 1 1 1 1 1 1 1 1 1 2 2 2 2 2 2 3 3 3 3 3 3 3 4 4 4 5 4 4 4 4 3 3 3 3
1 1 1 1 1 1 1 1 1 1 1 1 1 1 1 1 1 1 1 2 2 2 2 2 2 3 3 3 3 3 4 4 4 4 4 4 4 3 3 3 2 3 3 3
1 0 1 1 1 1 1 1 1 1 1 1 1 1 1 1 1 1 2 2 3 3 3 3 3 3 3 3 3 3 4 4 4 4 3 3 3 3 3 2 2 2 2 2
1 1 1 1 1 1 2 2 1 1 1 1 1 1 1 1 1 1 2 2 3 3 4 3 3 3 3 3 3 4 5 5 5 4 3 3 3 2 2 2 2 2 2 2
1 1 1 1 1 1 1 1 1 1 1 1 1 1 1 1 1 1 1 2 2 3 3 3 2 2 2 3 4 5 7 7 5 4 3 3 2 2 1 1 1 1 2 2
1 1 1 1 1 1 1 1 1 1 1 1 1 1 1 1 1 1 1 1 2 2 2 2 2 2 2 3 4 5 6 6 5 4 3 3 2 1 1 1 1 1 1 1
1 1 1 1 1 1 1 1 1 1 1 1 1 1 1 1 1 1 1 1 1 1 2 2 1 1 2 2 3 4 5 5 4 3 2 2 2 1 1 1 1 1 1 1
1 1 1 1 1 1 1 1 1 1 1 1 1 1 1 1 1 1 1 1 1 1 1 1 1 1 1 1 2 2 3 3 2 2 2 2 1 1 1 1 0 0 0 0
1 1 1 1 1 1 1 1 1 1 1 1 1 1 1 1 0 0 0 1 1 1 0 0 0 1 1 1 1 2 2 2 1 1 1 1 1 1 1 0 0 0 0 0
1 1 1 1 1 1 1 1 1 1 1 1 1 0 0 0 0 0 0 0 0 0 0 0 0 0 0 0 1 1 1 1 1 1 1 1 1 1 1 0 0 0 0 0
0 0 1 1 1 1 1 1 1 1 1 0 0 0 0 0 0 0 0 0 0 0 0 0 0 0 0 0 0 1 0 0 1 1 1 0 0 0 0 0 0 0 0 0
0 0 0 1 1 1 1 1 0 0 0 0 0 0 0 0 0 0 0 0 0 0 0 0 0 0 0 0 1 1 0 0 0 0 0 0 0 0 0 0 0 0 0 0
0 0 1 1 1 1 1 1 0 0 0 0 0 0 0 0 0 0 0 0 0 0 0 0 0 0 0 0 0 0 0 0 0 0 0 0 0 0 0 0 0 0 0 0
0 0 1 1 1 1 1 1 0 0 0 0 0 0 0 0 0 0 0 0 0 0 0 0 0 0 0 0 0 0 0 0 0 0 0 0 0 0 0 0 0 0 0 0
0 0 0 1 1 1 1 0 0 0 0 0 0 0 0 0 0 0 0 0 0 0 0 0 0 0 0 0 0 0 0 0 0 0 0 0 0 0 0 0 0 0 0 0
0 0 0 0 0 0 0 0 0 0 0 0 0 0 0 0 0 0 0 0 0 0 0 0 0 0 0 0 0 0 0 0 0 0 0 0 0 0 0 0 0 0 0 0
0 0 0 0 0 0 0 0 0 0 0 0 0 0 0 0 0 0 0 0 0 0 0 0 0 0 0 0 0 0 0 0 0 0 0 0 0 0 0 0 0 0 0 0
0 0 0 0 0 0 0 0 0 0 0 0 0 0 0 0 0 0 0 0 0 0 0 0 0 0 0 0 0 0 0 0 0 0 0 0 0 0 0 0 0 0 0 0
0 0 0 0 0 0 0 0 0 0 0 0 0 0 0 0 0 0 0 0 0 0 0 0 0 0 0 0 0 0 0 0 0 0 0 0 0 0 0 0 0 0 0 0
0 0 0 0 0 0 0 0 0 0 0 0 0 0 0 0 0 0 0 0 0 0 0 0 0 0 0 0 0 0 0 0 0 0 0 0 0 0 0 0 0 0 0 0
0 0 0 0 0 0 0 0 0 0 0 0 0 0 0 0 0 0 0 0 0 0 0 0 0 0 0 0 0 0 0 0 0 0 0 0 0 0 0 0 0 0 0 0
0 0 0 0 0 0 0 0 0 0 0 0 0 0 0 0 0 0 0 0 0 0 0 0 0 0 0 0 0 0 0 0 0 0 0 0 0 0 0 0 0 0 0 0
0 0 0 0 0 0 0 0 0 0 0 0 0 0 0 0 0 0 0 0 0 0 0 0 0 0 0 0 0 0 0 0 0 0 0 0 0 0 0 0 0 0 0 0
Wind_Speed
10 7 7 9 10 11 13 12 11 9 8 5 4 3 2 4 7 10 12 14 14 14 14 14 14 13 13 13 13 13 13 13 12 12 11 10 10 10 9 9 9 8 9 9
9 7 8 10 10 11 12 12 12 11 9 3 3 1 1 3 5 8 9 11 12 13 12 12 13 12 12 12 12 12 13 12 11 11 11 11 10 10 9 9 8 8 9 9
8 6 8 12 10 10 10 9 9 10 5 2 1 2 2 0 3 5 6 8 9 10 10 10 11 11 11 11 11 12 12 12 12 12 11 11 11 10 10 10 9 9 10 10
7 6 11 2 0 4 7 6 5 4 3 2 2 2 2 2 0 2 3 5 6 7 8 9 9 10 10 11 12 12 12 12 12 11 11 11 10 11 10 9 9 10 10 11
6 8 7 3 2 2 5 3 1 2 1 1 1 3 5 5 3 1 0 2 3 5 6 7 8 8 9 9 10 10 11 10 10 10 10 10 10 10 9 9 9 10 10 10
7 7 6 2 3 1 5 4 2 0 1 1 2 3 5 6 5 4 3 2 2 3 4 5 6 7 7 7 7 8 8 8 8 8 9 9 9 9 8 8 9 9 9 9
8 8 3 5 2 4 5 2 4 2 2 1 3 5 5 5 5 5 5 5 4 4 4 4 4 5 6 5 6 6 6 6 6 7 7 7 6 6 7 7 7 8 8 9
5 7 1 5 1 1 4 3 3 3 4 5 7 7 6 6 6 6 6 7 7 7 6 5 5 5 5 3 2 3 4 5 5 5 4 4 5 6 6 6 7 8 8 9
2 3 5 3 3 4 2 3 3 4 5 6 8 8 7 7 7 7 8 7 7 8 8 7 6 5 5 4 3 3 3 3 3 3 3 3 4 5 6 6 6 6 7 7
1 3 3 3 3 3 3 4 4 5 6 8 9 9 8 8 7 7 8 8 8 8 8 8 7 6 4 4 3 3 3 2 2 2 3 3 3 4 4 4 5 6 6 7
1 2 3 5 5 5 6 6 7 8 8 9 10 9 9 8 8 7 7 8 7 8 8 7 6 5 4 3 3 3 2 2 1 1 1 2 2 2 3 3 3 5 6 7
3 4 3 4 5 5 7 8 9 10 11 10 10 11 10 9 8 7 7 7 7 7 7 6 6 5 4 3 2 2 2 1 0 1 1 2 2 2 4 5 5 7 8 8
3 4 5 5 6 7 9 10 10 11 11 11 10 10 10 9 7 7 7 7 7 6 6 6 5 5 4 3 3 2 2 1 1 1 1 2 3 4 4 5 9 11 12 12
3 4 6 6 8 9 11 12 12 12 11 10 9 9 8 8 7 7 6 6 5 5 4 4 4 4 3 2 2 2 1 1 2 2 3 3 3 4 5 6 7 6 7 11
5 6 8 9 10 11 11 11 11 11 11 9 8 7 7 6 6 5 4 4 3 3 3 3 3 3 2 2 2 2 3 2 3 4 4 4 5 5 6 7 7 8 8 7
7 10 11 11 11 11 11 10 10 9 8 7 6 5 5 4 4 3 3 2 2 3 4 3 3 3 2 2 2 2 2 2 4 5 5 5 5 6 6 7 8 8 8 9
9 10 10 11 10 9 8 7 6 6 6 5 4 3 3 3 3 3 3 3 3 3 3 3 3 3 3 3 5 5 5 3 4 6 6 6 6 7 7 8 8 9 9 8
9 9 9 9 8 8 7 6 5 5 4 3 3 3 3 3 3 3 3 4 4 4 3 3 3 4 4 4 4 6 6 6 6 6 6 6 7 8 9 9 9 11 10 9
11 10 9 8 7 6 6 5 4 3 3 4 4 4 4 4 4 4 4 5 5 5 3 3 2 5 6 5 5 6 7 8 8 7 7 7 8 9 9 9 10 10 11 10
10 9 8 7 6 6 5 4 4 4 4 4 5 5 6 6 6 6 5 6 4 5 5 5 6 6 6 5 6 8 8 8 9 8 8 9 9 9 9 10 10 10 10 10
8 7 6 6 5 5 4 3 3 3 4 4 4 5 6 6 7 6 7 6 3 4 5 5 5 5 5 6 7 9 9 8 9 9 9 9 9 9 10 10 10 10 10 10
6 5 5 5 4 4 4 3 4 4 4 5 6 6 7 7 7 6 6 5 5 4 6 6 5 6 7 9 9 9 9 9 9 9 9 9 9 9 10 10 10 10 10 10
5 5 5 5 5 5 5 4 4 4 5 5 6 6 6 7 7 7 6 4 6 5 6 6 6 6 8 9 8 8 9 9 9 9 9 9 9 9 9 10 10 10 10 10
5 5 5 5 5 5 6 6 6 5 6 6 5 6 6 6 6 5 6 3 4 5 6 4 3 5 9 8 8 7 8 8 8 9 9 9 8 9 9 9 10 10 10 11
5 5 5 5 6 5 6 7 7 7 7 6 6 6 6 5 6 6 6 6 5 6 6 3 2 5 8 7 7 7 7 7 8 9 9 9 9 9 9 9 9 9 9 9
5 5 4 5 5 5 6 6 6 6 7 7 6 6 5 5 5 5 5 5 6 5 7 6 5 5 6 7 7 7 8 7 6 7 8 8 9 9 9 9 12 9 9 9
5 4 4 5 5 5 6 6 6 7 7 7 7 6 6 6 5 6 7 6 6 6 6 6 6 6 6 6 6 6 6 6 6 7 7 7 7 8 8 10 8 8 9 9
Wind_Direction
268 281 268 255 243 227 234 254 270 279 281 303 319 305 240 209 195 193 190 192 194 194 193 193 193 194 195 194 191 189 189 192 192 192 193 194 194 195 198 204 208 210 217 223
249 249 254 254 250 242 239 251 259 270 279 335 4 4 224 200 197 195 194 194 194 195 194 195 195 194 193 194 189 187 190 193 190 190 190 193 195 196 199 204 213 214 220 227
247 230 240 240 236 237 237 242 258 269 292 8 3 17 16 191 196 198 198 197 196 196 197 196 196 195 194 192 187 188 193 195 192 193 195 197 198 199 203 206 212 219 224 230
247 227 240 232 123 260 256 256 269 275 295 347 20 48 59 40 205 208 208 200 197 197 195 194 191 191 194 190 188 190 193 197 195 196 198 199 202 205 208 212 215 221 226 231
243 238 248 188 162 254 252 231 320 278 260 108 106 152 103 61 47 39 222 208 197 194 188 182 182 184 185 189 189 192 194 196 195 196 199 200 206 212 213 217 221 225 228 233
236 249 249 111 84 325 252 205 65 49 167 181 232 237 86 53 43 49 62 83 123 147 153 155 168 168 173 181 187 193 193 193 192 196 203 207 210 214 215 219 227 233 234 237
239 248 247 62 75 224 242 66 55 61 75 72 48 37 71 63 58 59 64 75 90 101 111 123 136 145 160 172 189 195 183 181 184 190 199 206 208 212 216 222 230 237 242 242
237 242 193 60 120 340 39 54 66 77 80 82 87 89 86 77 71 70 72 73 80 83 81 85 104 126 137 140 156 166 164 169 176 186 204 198 205 214 219 228 231 236 240 248
324 30 55 42 39 52 60 83 84 86 95 106 105 100 93 86 77 74 74 75 79 89 87 82 83 93 100 99 109 129 136 152 159 169 190 207 213 216 219 223 242 251 253 258
273 78 59 57 58 65 71 91 94 100 106 108 107 102 94 87 81 76 74 74 77 83 82 76 72 73 76 80 95 111 116 123 154 174 190 204 236 236 238 240 248 256 263 269
272 56 72 64 56 73 90 99 102 101 100 103 104 98 93 87 79 74 73 73 72 72 74 75 76 73 66 67 82 95 101 118 161 172 182 218 227 262 272 286 296 285 290 294
355 25 18 48 60 89 100 99 99 101 100 98 98 97 93 87 83 81 79 79 78 77 77 75 74 69 60 58 70 89 92 73 30 302 296 275 265 250 218 237 236 237 246 264
349 28 61 81 84 94 97 98 99 98 97 96 90 89 88 85 82 81 80 79 80 80 80 78 72 64 54 46 48 55 56 31 330 314 299 294 297 298 294 252 229 232 234 235
79 98 96 95 98 103 105 104 103 100 96 92 89 85 85 85 82 77 74 74 78 78 74 72 68 62 54 54 42 21 357 57 293 303 310 308 306 300 294 297 296 287 250 231
75 97 108 109 107 105 108 110 107 100 94 89 84 78 75 74 75 72 68 67 66 61 52 46 45 40 34 23 8 339 323 330 335 323 305 302 299 294 293 296 297 299 300 286
99 106 112 112 112 114 113 110 105 102 99 92 85 78 72 69 66 59 51 41 21 22 24 18 14 5 353 337 324 301 295 299 292 301 300 301 302 301 300 299 297 298 300 305
111 114 117 114 111 107 102 101 103 103 95 86 74 62 50 45 35 23 6 9 358 339 329 327 329 328 317 312 306 308 311 298 241 273 292 303 304 301 299 296 295 298 299 307
94 100 103 105 105 102 93 82 71 66 62 59 50 33 7 354 348 350 341 336 320 309 307 306 323 315 303 300 299 304 303 303 301 300 302 302 305 300 296 295 296 298 300 299
92 94 93 92 92 92 88 76 61 47 34 20 14 4 340 331 330 323 318 308 302 298 320 332 332 286 294 307 303 280 288 296 298 299 299 298 287 290 296 299 300 301 302 305
89 87 83 79 74 70 65 51 34 25 16 7 354 341 329 329 326 319 310 297 307 334 335 328 302 297 301 313 305 294 296 298 301 302 301 300 301 302 301 301 302 302 304 304
81 81 78 70 61 55 47 26 10 4 0 347 332 323 319 317 314 313 305 301 329 348 317 289 280 301 315 329 291 292 298 302 302 302 302 302 304 304 304 304 302 302 303 305
47 43 42 37 28 18 11 355 348 342 339 328 323 323 318 312 309 306 299 309 325 9 312 304 320 8 348 314 296 300 303 303 303 304 306 308 307 305 303 304 303 304 305 304
33 27 23 18 9 355 344 342 344 339 332 326 323 321 321 320 315 310 310 338 334 358 319 327 4 1 321 295 296 300 302 305 306 307 307 306 306 305 303 302 301 301 302 304
19 10 5 358 347 335 338 342 338 329 321 312 311 316 310 303 303 310 324 348 350 330 314 349 341 310 289 287 298 305 308 309 309 310 311 312 310 307 305 303 303 303 303 304
354 335 332 332 321 324 327 316 310 308 307 311 315 314 308 315 319 324 325 327 334 309 308 315 263 281 288 306 311 312 311 319 324 320 314 312 311 311 310 310 313 312 311 310
330 320 332 322 319 312 311 314 316 318 317 316 318 324 325 324 319 315 311 313 316 314 308 313 318 302 313 319 321 322 321 322 319 314 317 317 315 315 315 317 316 314 311 308
309 308 302 305 317 326 323 319 316 317 319 321 324 326 324 320 320 324 322 319 319 320 324 327 329 329 331 334 334 333 329 330 328 323 320 318 317 318 319 318 315 312 310 309